Helicity
143 163 162 193 165 197 254 231 231 192 166 139 129 117 78 44 44 62 49 39 59 31 39 41 38 44 42 45 43 42 49 48 49 47 47 47 49 59 62 62 71 81 90
205 162 152 124 133 160 271 231 256 228 192 152 131 101 89 68 79 76 75 47 55 22 37 41 40 46 52 50 42 37 41 37 37 38 41 45 42 55 62 64 76 76 68
175 156 139 141 134 194 226 207 257 242 207 151 132 110 95 94 93 88 103 72 46 31 40 43 49 45 48 44 31 28 28 25 27 31 39 39 38 44 54 59 62 64 71
209 154 157 162 196 217 235 170 248 233 197 153 153 137 102 113 86 94 106 81 66 55 58 47 46 35 34 34 23 18 20 17 16 19 29 31 39 39 45 47 54 45 51
184 139 181 193 197 210 210 194 254 241 234 203 154 169 119 119 78 90 98 74 61 60 71 44 41 38 33 21 21 12 10 12 4 16 15 24 19 34 35 46 49 40 49
199 190 197 183 169 213 191 227 239 305 233 216 167 173 119 118 94 79 85 73 65 65 65 54 41 40 38 27 13 11 8 10 5 17 11 35 18 39 36 49 48 39 49
224 190 238 186 172 164 195 229 255 277 269 243 263 223 191 124 93 87 95 81 64 61 66 62 60 62 51 37 22 6 2 -2 8 5 18 26 32 48 66 51 43 48 45
303 298 267 180 161 174 182 195 214 264 289 211 220 271 192 161 105 65 76 63 52 88 62 60 69 72 79 81 59 21 7 1 1 17 38 38 45 66 80 66 59 61 53
287 253 213 173 162 141 185 152 203 209 258 186 167 211 243 146 145 96 28 55 80 95 80 77 74 77 91 99 92 68 58 42 22 17 39 100 108 85 96 100 78 101 100
284 232 172 202 237 172 242 208 154 169 198 188 266 212 196 94 177 191 163 112 103 108 90 106 85 90 104 117 108 114 116 107 93 67 45 64 108 156 137 155 152 136 125
150 160 165 238 312 180 206 203 268 132 148 187 211 252 236 222 176 167 169 154 149 122 94 116 105 118 126 139 142 144 151 157 146 119 110 79 70 123 159 184 189 180 153
114 125 156 165 128 173 191 128 165 100 75 147 130 132 188 203 172 163 160 151 136 154 140 146 133 127 150 175 150 148 172 180 182 166 147 154 149 134 140 183 197 182 177
117 68 90 68 113 145 137 145 110 149 115 128 131 155 186 203 234 214 212 185 133 128 160 144 150 147 151 185 143 158 180 193 188 194 197 190 190 194 186 170 189 212 182
16 43 6 -26 85 138 128 108 128 195 86 61 9 184 242 206 231 260 244 250 167 141 164 176 159 134 166 161 139 145 162 174 193 206 199 195 192 210 215 211 189 182 182
31 32 52 60 92 143 112 119 121 162 131 65 34 81 217 269 290 249 247 233 202 170 148 176 191 182 199 180 154 167 141 86 131 158 186 211 227 232 232 222 211 188 192
89 65 29 25 59 123 134 129 91 55 91 113 169 160 164 232 240 221 257 236 245 235 195 170 148 187 229 257 186 193 181 147 126 150 166 196 235 258 245 260 258 244 224
58 102 90 73 82 68 75 116 116 143 170 141 111 156 220 271 244 237 228 246 208 268 232 115 171 206 213 218 226 229 208 201 194 208 190 220 221 276 242 231 274 278 154
57 60 78 102 90 99 123 114 111 146 180 132 150 155 147 271 258 318 353 249 188 199 267 206 253 265 294 274 268 243 278 289 280 249 211 216 251 250 229 237 228 226 282
100 92 96 95 93 114 138 168 155 148 183 189 189 202 222 241 205 221 263 275 295 324 326 322 238 274 289 296 291 288 281 238 243 222 224 244 245 239 211 262 284 384 306
146 140 131 131 136 133 129 128 158 160 156 184 209 211 212 240 245 255 289 277 304 312 308 319 296 219 231 293 312 215 189 235 211 237 249 274 223 215 239 265 333 342 353
165 186 182 167 179 186 203 192 192 194 183 180 202 226 259 281 254 239 265 240 279 300 289 267 261 240 207 268 265 193 190 203 201 266 292 311 298 280 275 294 307 393 415
219 223 224 239 250 264 232 273 288 246 228 226 209 209 226 233 218 247 297 254 266 304 279 278 273 250 227 260 273 282 265 270 288 329 378 414 395 341 359 381 468 575 617
193 216 236 262 274 283 293 333 352 319 296 279 241 211 204 226 221 222 221 231 228 277 294 225 206 213 224 252 261 294 274 273 271 408 483 532 505 555 435 466 524 595 633
110 188 218 263 280 286 305 373 406 354 312 302 308 287 253 212 227 256 258 250 243 228 234 249 215 173 198 323 350 347 335 514 719 776 787 669 608 730 704 695 670 684 514
138 123 116 180 255 265 292 325 407 383 363 321 304 292 302 284 244 287 293 262 249 407 496 439 500 557 535 518 482 524 606 757 866 819 780 619 688 728 700 689 708 620 631
129 128 119 176 347 393 553 558 314 306 295 317 318 375 304 321 318 342 359 324 344 480 566 568 558 682 696 744 807 725 703 726 810 959 960 903 912 845 741 753 577 514 496
Wind_Speed
84 64 50 42 26 31 31 30 25 19 19 16 14 10 6 4 3 8 8 17 17 18 19 18 19 17 14 11 9 10 11 13 13 14 14 15 17 19 20 22 24 26 28
51 54 42 32 30 29 34 29 28 23 18 18 16 12 7 5 5 1 5 10 14 11 14 15 14 13 11 6 6 7 9 10 11 12 13 15 17 18 19 20 22 23 25
58 55 36 29 28 31 30 29 25 21 19 17 17 13 8 8 12 4 4 4 7 6 8 8 9 10 6 3 5 6 8 9 11 12 13 14 16 17 17 18 20 21 23
51 46 34 38 24 31 30 28 27 23 16 17 18 16 12 13 17 10 7 6 3 4 1 3 5 5 3 2 5 6 8 11 12 13 13 13 14 16 17 18 18 20 23
48 46 42 41 24 30 29 31 28 23 16 17 18 19 18 16 18 19 14 10 10 8 8 4 2 1 1 7 9 12 14 16 18 14 17 17 16 17 17 18 16 18 20
52 42 43 39 27 27 25 29 30 17 17 17 18 26 21 22 23 20 17 18 15 13 12 8 8 8 7 11 14 18 20 20 20 18 18 17 17 17 17 16 19 19 17
47 41 43 35 29 34 26 28 29 23 18 17 17 25 33 32 29 31 24 25 23 19 15 15 15 15 15 17 21 23 26 28 26 28 23 26 19 15 13 6 21 15 15
43 41 36 42 34 32 27 29 31 26 26 22 29 28 40 41 37 31 30 28 24 23 20 20 21 24 24 26 30 30 30 35 34 30 23 29 28 24 13 13 16 16 16
33 39 37 35 29 29 30 29 30 30 30 31 26 34 40 45 33 34 31 20 35 30 28 29 30 29 29 30 30 31 31 35 43 37 36 26 25 29 26 22 21 18 17
29 32 29 31 26 26 29 31 30 31 30 33 38 42 36 30 42 44 44 33 34 34 34 35 34 33 31 33 32 31 35 35 32 34 43 37 37 30 37 31 28 26 24
21 21 24 30 33 32 29 29 32 33 31 30 32 36 39 39 40 41 43 46 46 40 33 31 32 30 26 29 33 32 31 37 36 41 40 47 53 48 44 41 35 33 33
20 19 23 26 25 26 27 35 27 30 29 27 28 26 30 35 39 44 51 51 45 41 34 31 33 34 40 41 26 26 29 31 32 35 42 35 35 43 48 44 40 39 40
26 27 23 31 29 26 27 28 29 30 39 32 31 30 33 38 47 44 46 48 46 39 38 37 37 39 44 41 35 33 33 33 34 36 36 36 39 43 45 45 47 47 47
33 29 47 49 29 25 26 28 32 33 36 36 32 32 34 37 45 42 40 40 49 44 41 43 44 38 44 46 44 41 47 40 37 38 41 42 45 46 47 50 51 51 52
33 36 41 43 37 33 31 27 32 34 36 37 38 41 43 45 44 41 41 41 40 53 54 58 53 48 50 54 56 57 57 47 43 43 44 48 51 53 54 55 55 57 59
25 31 34 41 35 31 36 38 40 39 43 40 45 57 50 51 51 49 45 46 47 50 61 66 68 63 58 57 62 60 59 60 67 65 59 56 59 59 58 62 61 59 58
19 26 27 30 32 31 30 34 35 34 36 42 44 42 46 50 54 54 52 54 52 47 64 63 71 73 71 71 68 64 61 62 67 63 61 58 66 69 61 59 60 55 54
15 21 25 24 24 31 29 32 34 33 35 38 38 39 43 43 42 46 52 52 54 56 57 55 54 67 70 68 68 69 68 70 69 70 68 65 64 65 63 62 57 57 50
16 17 19 22 24 26 29 33 35 37 38 40 41 43 45 47 45 47 50 54 58 62 62 63 63 73 72 71 74 74 71 72 74 73 77 76 69 68 69 64 61 56 50
24 26 26 27 27 28 31 34 38 42 45 47 48 49 51 52 53 55 58 57 60 63 65 71 73 76 76 73 69 71 78 76 77 74 70 67 70 73 74 66 58 55 49
31 32 31 32 35 36 36 37 39 43 46 49 51 54 57 58 58 58 61 61 64 67 70 71 74 74 75 73 72 75 78 78 78 66 66 66 64 66 65 59 55 48 47
36 39 38 39 41 42 43 45 45 46 48 50 53 54 55 57 61 62 64 66 66 67 68 68 70 71 70 72 72 74 74 76 79 67 69 68 62 64 61 54 52 48 44
50 49 49 49 47 47 48 50 52 53 54 56 57 57 58 58 59 61 62 65 67 69 68 65 68 67 68 66 68 69 72 75 78 75 65 70 63 64 56 53 45 44 44
62 56 55 54 56 59 56 54 54 55 60 62 63 63 65 65 63 62 64 66 65 67 69 71 73 72 70 71 71 74 72 73 71 70 64 71 62 61 53 49 47 44 47
71 77 75 66 61 63 68 67 64 63 62 65 65 65 65 66 67 64 66 69 69 69 67 69 68 72 74 75 74 73 75 71 78 72 65 66 63 57 54 54 50 45 43
71 75 77 74 70 78 74 82 79 72 72 72 72 70 69 68 67 66 68 71 74 72 64 66 66 64 69 69 72 73 74 83 76 76 71 67 65 62 61 54 46 47 49
Wind_Direction
218 215 210 215 201 209 194 191 198 197 184 198 203 196 183 176 150 102 110 116 109 110 108 102 100 93 84 69 52 48 46 42 36 32 21 5 4 13 17 12 17 20 22
197 203 205 205 208 197 209 194 200 204 202 207 211 210 204 204 242 184 129 122 116 116 109 106 100 94 82 56 20 19 28 23 11 13 11 2 358 4 7 14 19 19 19
199 205 201 204 209 212 203 204 197 202 212 213 209 211 214 237 255 229 173 155 129 130 114 107 101 97 83 31 340 360 358 349 351 359 7 358 356 1 8 9 12 16 15
207 210 206 218 207 210 204 192 185 166 200 196 204 228 242 253 259 258 233 231 228 258 173 122 109 97 73 342 315 326 330 327 326 338 353 356 6 358 358 359 8 2 1
213 217 219 222 202 212 208 184 185 175 192 201 223 239 251 253 259 264 255 249 257 265 273 258 182 186 298 293 296 297 303 305 304 323 324 331 341 345 345 347 6 358 0
215 222 223 225 206 214 204 198 190 202 193 202 237 247 255 257 260 264 260 264 266 269 271 271 271 276 269 281 285 288 292 294 297 306 310 321 324 333 335 346 339 338 350
221 221 233 226 218 219 205 204 210 199 214 216 234 255 260 262 265 264 266 266 268 270 269 270 272 276 276 273 278 283 286 287 291 292 300 301 309 316 325 323 321 325 324
224 228 229 226 224 218 214 206 199 215 238 223 248 247 257 264 267 269 268 268 272 273 271 271 274 276 277 279 279 278 282 284 286 289 295 296 298 302 296 295 306 306 304
218 226 224 224 221 211 221 218 212 215 226 235 235 261 261 267 268 271 264 263 275 275 276 276 276 277 277 278 279 277 275 280 283 286 288 284 287 292 294 289 289 289 285
215 224 209 222 211 212 225 227 224 225 227 227 253 260 270 276 270 271 274 273 272 274 276 278 277 277 276 278 276 274 277 274 272 279 286 287 285 280 288 283 280 278 277
187 210 201 223 232 231 218 222 232 232 232 233 238 252 263 268 273 277 280 282 275 274 274 274 276 277 270 274 279 276 270 276 274 277 278 284 287 287 285 284 277 272 271
181 210 221 213 206 204 204 191 208 212 215 227 217 223 246 258 267 278 283 280 278 279 270 277 275 279 283 283 263 255 260 253 256 267 278 262 260 280 286 282 274 275 274
173 175 195 204 222 226 229 214 211 230 249 242 217 226 250 260 272 277 280 283 285 281 280 275 277 284 285 283 275 270 269 247 246 246 253 265 275 278 279 275 279 278 275
163 163 171 175 190 215 228 223 222 242 239 250 239 238 246 256 267 271 276 283 283 283 281 284 285 285 288 288 286 280 282 278 269 266 273 274 281 281 279 280 277 277 278
163 168 174 178 181 189 201 229 235 244 228 229 240 249 254 263 263 266 272 276 273 280 282 283 284 288 291 292 288 291 285 281 280 275 274 279 283 284 286 285 282 280 280
168 176 182 186 190 195 193 194 198 203 210 226 254 262 260 267 268 268 267 271 274 277 283 286 286 288 289 292 291 291 287 284 288 289 287 285 286 288 288 290 288 283 279
176 180 185 192 197 200 205 205 207 212 217 217 216 228 248 264 270 270 272 271 269 271 287 282 285 285 288 289 288 289 288 287 289 285 283 281 286 288 287 288 291 286 275
190 190 193 202 212 212 222 222 225 236 236 233 238 236 235 262 252 260 264 259 257 268 274 257 277 284 286 286 286 288 288 286 287 288 286 287 287 285 287 288 287 287 281
236 227 222 222 222 224 226 235 237 242 248 248 247 249 256 262 255 266 269 270 270 274 277 277 277 286 288 287 288 288 288 290 290 289 289 288 287 288 288 292 287 289 282
257 261 257 255 246 245 240 239 241 245 253 258 260 255 261 261 260 268 272 271 275 277 278 280 282 284 286 289 288 289 290 291 291 293 291 291 288 288 288 290 290 285 281
263 263 262 260 261 258 254 250 251 253 252 252 257 263 263 261 259 262 270 271 275 276 277 279 282 284 285 286 285 290 290 292 293 291 291 293 292 289 289 287 289 286 282
269 271 265 265 265 263 258 251 253 260 262 261 259 259 261 260 253 256 256 254 267 272 272 275 278 279 280 284 287 287 288 291 293 293 291 293 293 293 292 291 289 287 290
281 276 275 274 268 267 262 257 252 262 267 266 266 267 269 269 267 269 266 259 257 254 257 263 270 271 278 281 285 285 285 286 287 292 291 291 296 297 296 296 290 288 290
289 283 280 278 276 276 272 270 269 267 271 270 270 269 270 272 272 272 274 274 271 269 265 265 267 270 277 286 283 284 283 287 292 293 292 288 295 294 297 299 296 295 292
296 291 290 285 283 283 283 279 276 275 273 273 274 272 271 271 271 269 272 274 276 279 286 286 287 290 290 288 284 285 283 280 285 289 292 289 293 294 297 297 299 297 301
303 300 298 297 296 291 293 293 283 275 275 276 277 275 271 271 272 268 268 271 274 277 279 285 290 297 298 299 296 291 283 281 283 288 291 292 291 288 292 299 299 302 304